This demonstration page uses our WeatherBlox Daily Observations layout. Learn more.

Left ArrowRight Arrow

Hourly Observations for June 18, 2017

Temp ( °F °C ) Dew Point ( °F °C ) Humidity (%) Winds ( mph kmh ) Pressure ( in mb ) Visibility ( mi km ) Precip ( " mm )
12:52 am 00:52 Mostly Cloudy 76 24.4 74 23.3 94 94 SSW 6 9 29.76 1008 9 14 0.00 0.00
1:52 am 01:52 Partly Cloudy 76 24.4 74 23.3 94 94 S 9 15 29.72 1006 9 14 0.00 0.03
2:52 am 02:52 Partly Cloudy with Light Rain 76 24.4 74 23.3 94 94 SSW 8 13 29.68 1005 10 16 0.01 0.25
3:36 am 03:36 Mostly Cloudy with Light Rain 76 24.4 74 23.3 94 94 WNW 10 17 29.74 1007 8 13 0.00 0.03
3:48 am 03:48 Mostly Cloudy 75 24 73 23 94 94 NNW 18 30 29.71 1006 8 13 0.00 0.03
3:52 am 03:52 Cloudy 75 23.9 74 23.3 96 96 NW 20 31 29.73 1007 8 13 0.00 0.03
4:08 am 04:08 Mostly Cloudy 73 22.8 70 21.1 90 90 N 14 22 29.71 1006 10 16 0.00 0.00
4:18 am 04:18 Partly Cloudy 73 22.8 69 20.6 87 87 N 12 19 29.71 1006 10 16 0.00 0.00
4:52 am 04:52 Mostly Clear 71 21.7 68 20 90 90 NNW 8 13 29.77 1008 10 16 0.00 0.00
5:52 am 05:52 Mostly Cloudy 71 21.7 69 20.6 94 94 S 8 13 29.80 1009 10 16 0.00 0.00
6:52 am 06:52 Partly Cloudy with Light Rain 70 21.1 69 20.6 97 97 NW 5 7 29.81 1010 8 13 0.01 0.25
7:52 am 07:52 Partly Cloudy with Light Rain 70 21.1 69 20.6 97 97 NW 6 9 29.83 1010 10 16 0.03 0.76
8:00 am 08:00 Mostly Cloudy with Light Rain 70 21.1 69 20.6 97 97 WNW 7 11 29.85 1011 10 16 0.00 0.03
8:12 am 08:12 Mostly Cloudy with Light Rain 70 21.1 69 20.6 97 97 WNW 7 11 29.85 1011 10 16 0.00 0.03
8:45 am 08:45 Mostly Cloudy with Light Rain 68 20 67 19.4 96 96 NW 7 11 29.88 1012 10 16 0.00 0.03
8:52 am 08:52 Mostly Cloudy with Light Rain 68 20 67 19.4 96 96 NW 8 13 29.89 1012 10 16 0.01 0.25
9:52 am 09:52 Mostly Cloudy with Light Rain 68 20 66 18.9 93 93 Calm 29.85 1011 10 16 0.02 0.51
10:52 am 10:52 Sunny 69 20.6 66 18.9 90 90 NNW 3 6 29.85 1011 10 16 0.00 0.03
11:52 am 11:52 Mostly Sunny 70 21.1 65 18.3 84 84 NNW 8 13 29.87 1012 10 16 0.00 0.00
12:52 pm 12:52 Partly Cloudy with Light Rain 71 21.7 62 16.7 73 73 NNW 12 19 29.87 1012 10 16 0.00 0.03
1:52 pm 13:52 Cloudy 69 20.6 62 16.7 78 78 NW 9 15 29.88 1012 10 16 0.00 0.03
2:52 pm 14:52 Sunny 71 21.7 63 17.2 76 76 NW 10 17 29.85 1011 10 16 0.01 0.25
3:52 pm 15:52 Sunny 74 23.3 63 17.2 69 69 W 9 15 29.85 1011 10 16 0.00 0.00
4:52 pm 16:52 Mostly Sunny 74 23.3 63 17.2 69 69 WNW 8 13 29.85 1011 10 16 0.00 0.00
5:52 pm 17:52 Mostly Sunny 76 24.4 64 17.8 67 67 WNW 8 13 29.85 1011 10 16 0.00 0.00
6:52 pm 18:52 Sunny 76 24.4 63 17.2 64 64 WNW 7 11 29.86 1011 10 16 0.00 0.00
7:52 pm 19:52 Sunny 75 23.9 62 16.7 64 64 WNW 3 6 29.87 1012 10 16 0.00 0.00
8:52 pm 20:52 Clear 72 22.2 63 17.2 73 73 W 3 6 29.89 1012 10 16 0.00 0.00
9:52 pm 21:52 Clear 68 20 64 17.8 87 87 WSW 6 9 29.91 1013 10 16 0.00 0.00

Powered by AerisWeather